{"data":{"norad_id":64823,"epoch":"2026-05-24T17:44:29.477184Z","epoch_age_seconds":90906,"freshness":"FRESH","line1":"1 64823U 25151H   26144.73923006  .00000359  00000+0  76102-4 0  9990","line2":"2 64823  51.9015 316.8026 0001041 136.1594 223.9451 14.79944853 46670","mean_motion":14.79944853,"eccentricity":0.0001041,"inclination_deg":51.9015,"raan_deg":316.8026,"arg_perigee_deg":136.1594,"mean_anomaly_deg":223.9451,"bstar":7.6102e-5,"rev_number":4667,"period_min":97.30092287432,"perigee_km":628.76871761529,"apogee_km":630.22770726652,"semimajor_km":7007.6352124409,"source":"CELESTRAK","updated_at":"2026-05-25T13:38:04.823346Z"}}